EW1979 Weather Reports


time (UTC)temp
C
wind
direction
speed
KPH
gust
KPH
rain 1hr
cm
rain 24hr
cm
rain mn
cm
humidity
%
barometer
mb
20260505100037 18 180 0.0 0.0 0.00 0.00 0.00 3 1004.3
20260505094507 18 196 0.0 0.0 0.00 0.00 0.00 6 1004.4
20260505093003 18 178 0.0 0.0 0.00 0.00 0.00 8 1004.5
20260505084603 19 169 0.0 0.0 0.00 0.00 0.00 15 1004.5
20260505083008 19 198 0.0 0.0 0.00 0.00 0.00 18 1004.6
20260505081635 19 194 0.0 0.0 0.00 0.00 0.00 21 1004.9
20260505073004 19 182 0.0 0.0 0.00 0.00 0.00 27 1005.4
20260505071510 19 167 0.0 0.0 0.00 0.00 0.00 28 1005.6
20260505070003 19 161 0.0 0.0 0.00 0.00 0.00 29 1005.7
20260505064508 19 206 0.0 0.0 0.00 0.00 0.00 30 1005.9
20260505061502 19 204 0.0 0.0 0.00 0.00 0.00 36 1006.2
20260505060007 19 187 0.0 0.0 0.00 0.00 0.00 41 1006.1
20260505054602 20 200 0.0 0.0 0.00 0.00 0.00 47 1006.3
20260505053003 20 199 0.0 0.0 0.00 0.00 0.00 55 1006.4
20260505051516 20 191 0.0 0.0 0.00 0.00 0.00 62 1006.2
20260505041605 20 172 0.0 0.0 0.00 0.00 0.00 78 1006.1
20260505040004 20 172 0.0 0.0 0.00 0.00 0.00 80 1006.3
20260505034603 21 191 0.0 0.0 0.00 0.00 0.00 80 1006.3
20260505033003 21 181 0.0 0.0 0.00 0.00 0.00 79 1006.2
20260505031503 21 168 0.0 0.0 0.00 0.00 0.00 78 1006.1
20260505021501 21 198 0.0 0.0 0.00 0.00 0.00 76 1006.5
20260505013127 22 196 0.0 0.0 0.00 0.00 0.00 75 1006.3
20260505011633 22 182 0.0 0.0 0.00 0.00 0.00 74 1006.2
20260505010002 22 184 0.0 0.0 0.00 0.00 0.00 73 1006.3
20260505004605 23 186 0.0 0.0 0.00 0.00 0.00 72 1006.3
20260505003106 23 207 0.0 0.0 0.00 0.00 0.00 71 1006.1
20260505001602 23 167 0.0 0.0 0.00 0.00 0.00 71 1006.0
20260504234505 23 161 0.0 0.0 0.00 0.00 0.00 69 1005.9
20260504233118 23 177 0.0 0.0 0.00 0.00 0.00 69 1006.0
20260504231602 24 196 0.0 0.0 0.00 0.00 0.00 68 1006.3
20260504230107 24 165 0.0 0.0 0.00 0.00 0.00 69 1006.5
20260504224608 24 175 0.0 0.0 0.00 0.00 0.00 68 1006.7
20260504223008 24 152 0.0 0.0 0.00 0.00 0.00 68 1007.0
20260504221503 24 149 0.0 0.0 0.00 0.00 0.00 69 1007.0
20260504214616 24 198 0.0 0.0 0.00 0.00 0.00 68 1007.2
20260504213007 23 207 0.0 0.0 0.00 0.00 0.00 68 1007.3
20260504211603 23 178 0.0 0.0 0.00 0.00 0.00 70 1007.8
20260504210105 23 163 0.0 0.0 0.00 0.00 0.00 70 1008.0
20260504204606 23 182 0.0 0.0 0.00 0.00 0.00 69 1008.2
20260504203010 23 186 0.0 0.0 0.00 0.00 0.00 71 1008.4
20260504200004 23 194 0.0 0.0 0.00 0.00 0.00 70 1008.9
20260504194503 23 220 0.0 0.0 0.00 0.00 0.00 70 1009.3
20260504184504 22 182 0.0 0.0 0.00 0.00 0.00 71 1009.6
20260504181512 22 207 0.0 0.0 0.00 0.00 0.00 71 1010.2
20260504180007 22 163 0.0 0.0 0.00 0.00 0.00 72 1010.2
20260504174507 22 193 0.0 0.0 0.00 0.00 0.00 70 1010.4
20260504173007 21 186 0.0 0.0 0.00 0.00 0.00 73 1010.6
20260504171509 21 184 0.0 0.0 0.00 0.00 0.00 73 1010.5
20260504160106 20 169 0.0 0.0 0.00 0.00 0.00 75 1011.2
20260504140113 16 193 0.0 0.0 0.00 0.00 0.00 62 1011.8